Regional Weather Roundup
Issued by NWS Midland/Odessa, TX

Home | Current Version | Previous Version | Text Only | Print | Product List | Glossary On
Versions: 1 2 3 4 5 6 7 8 9 10 11 12 13 14 15 16 17 18 19 20 21 22 23 24 25 26 27 28 29 30 31 32 33 34 35 36 37 38 39 40 41 42 43 44 45 46 47 48 49 50
000
ASUS44 KMAF 202210
RWRMAF
MIDLAND AREA WEATHER ROUNDUP
NATIONAL WEATHER SERVICE MIDLAND TX
400 PM CST MON FEB 20 2017

...IN SOUTHWEST TEXAS AND SOUTHEAST NEW MEXICO...

CITY           SKY/WX    TMP DP  RH WIND       PRES   REMARKS
ALPINE         MOSUNNY   65  26  22 NW15      30.16S
ANDREWS        FAIR      69  21  16 N18G28    30.03R
ARTESIA        SUNNY     70  25  18 N16       30.07S
BIG SPRING     SUNNY     71  31  23 NW15G29   29.97R
CARLSBAD       SUNNY     71  26  18 NW13G22   30.06S
DRYDEN           N/A     74  29  19 NW20G26   29.99F
FORT STOCKTON  SUNNY     71  28  20 NW22G29   30.05R
GUAD PASS      SUNNY     63  27  25 W22G32    30.17R
HOBBS          MOSUNNY   68  25  19 NW15G22   30.06R
MARFA          SUNNY     62  28  27 W21G31    30.16R
MIDLAND AIRPK  SUNNY     72  21  15 N20G35    30.00R
MIDLAND INTL   SUNNY     72  22  15 N24G32    30.00R
ODESSA         SUNNY     72  19  13 N18G31    30.02R
PECOS          SUNNY     73  28  19 NW17      30.05S
PRESIDIO       FAIR      72  31  21 W20G28    30.11S
SEMINOLE       MOSUNNY   69  24  18 N18G25    30.03R
SNYDER         SUNNY     70  32  24 N20G26    29.92R
WINK           MOSUNNY   74  21  13 N17G23    30.02S
$$
...OTHER STATIONS IN TEXAS...

CITY           SKY/WX    TMP DP  RH WIND       PRES   REMARKS
ABILENE        MOSUNNY   69  34  27 W16G22    29.89R
AMARILLO       SUNNY     69  11  10 N22G30    29.99R
AUSTIN         PTSUNNY   70  56  61 SW7       29.92F
BROWNSVILLE    PTSUNNY   73  62  68 NW12      29.96S
CORPUS CHRISTI MOSUNNY   69  63  81 CALM      29.96F
DALLAS FTW     PTSUNNY   67  56  67 S14       29.89R
DEL RIO        SUNNY     76  35  22 W23       29.96F
EL PASO        SUNNY     66  23  19 NW9G22    30.16S
HOUSTON INT    LGT RAIN  61  59  93 E9        29.95R
LUBBOCK        MOSUNNY   70  15  12 N26G36    29.98R
SAN ANGELO     LGT RAIN  73  35  25 W16G30    29.91F
SAN ANTONIO    MOSUNNY   73  49  42 VRB7      29.94S
WACO           CLOUDY    65  58  78 MISG      29.93R
WICHITA FALLS  NOT AVBL
$$
...OTHER LOCATIONS IN NEW MEXICO...

CITY           SKY/WX    TMP DP  RH WIND       PRES   REMARKS
ALAMAGORDO     SUNNY     64  27  24 NW9G21    30.16S
ALBUQUERQUE    MOSUNNY   59  24  26 N16G25    30.18F
CANNON AFB     SUNNY     66  17  15 N10       30.05R
CLOVIS         SUNNY     66  25  20 NW10G18   30.06R
HOLLOMAN AFB   SUNNY     64  27  24 W13       30.19R
ROSWELL        SUNNY     73  14  10 N15         N/A
RUIDOSO        SUNNY     54  19  26 NW15G23   30.22R
SANTA FE       SUNNY     58  17  20 N17       30.17F
TRUTH OR CONSE SUNNY     62  28  27 VRB5      30.19S
TUCUMCARI      SUNNY     70  12  10 NW10      30.02S
$$




USA.gov is the U.S. government's official web portal to all federal, state and local government web resources and services.